Location: ????
(30.1475°N, 31.1342°E)
Time: 06:27:33
(UTC+00:00)

Meteor 1-14 Rocket - Pass Details

Date: 04 April 2023
Orbit: 834 x 918 km, 81.3° (Epoch: 03 June)

Event Time Altitude Azimuth Distance (km) Brightness Sun altitude
Rises 23:58:24 0° 13° (NNE) 3,398 8.0 -44.2°
Reaches altitude 10° 00:01:39 10° 33° (NNE) 2,470 7.2 -43.8°
Enters shadow 00:04:06 17° 58° (ENE) 2,046 6.7 -43.4°
